Location: Poughquag
(41.6090°N, 73.6820°W)
Time: 10:14:12
(UTC-05:00)

SR - Pass Details

Date: 07 December 2023
Orbit: 574 x 868 km, 66.7° (Epoch: 25 February)

Event Time Altitude Azimuth Distance (km) Brightness Sun altitude
Rises 20:19:19 0° 323° (NW) 3,436 ? -43.1°
Enters shadow 20:22:16 11° 315° (NW) 2,374 ? -43.6°
Maximum altitude 20:27:16 39° 249° (WSW) 1,197 - -44.6°
Drops below altitude 10° 20:32:12 10° 182° (S) 2,310 - -45.5°
Sets 20:34:38 0° 174° (S) 3,185 - -45.9°
